Location: Unspecified
(47.5840°N, 122.3000°W)
Time: 19:05:29
(UTC+00:00)

IRIDIUM 114 - Pass Details

Date: 16 March 2026
Orbit: 776 x 779 km, 86.4° (Epoch: 14 April)

Event Time Altitude Azimuth Distance (km) Brightness Sun altitude
Exits shadow 07:04:22 12° 300° (WNW) 2,168 7.1 -41.4°
Drops below altitude 10° 07:06:02 10° 319° (NW) 2,341 7.4 -41.5°
Sets 07:09:54 0° 348° (NNW) 3,274 8.4 -41.8°
